FW1492 Weather Reports


Display with metric or nautical units.
time (UTC)temp
F
wind
direction
speed
MPH
gust
MPH
rain 1hr
in
rain 24hr
in
rain mn
in
humidity
%
barometer
mb
20230203074557 28 274 4.0 11.0 0.00 0.00 0.00 65 1009.0
20230203073057 28 307 5.0 14.0 0.00 0.00 0.00 65 1009.2
20230203071604 28 248 5.0 17.0 0.00 0.00 0.00 63 1009.2
20230203070113 28 293 8.0 15.0 0.00 0.00 0.00 63 1009.1
20230203064559 28 289 5.0 11.0 0.00 0.00 0.00 64 1009.3
20230203063118 28 309 5.0 13.0 0.00 0.00 0.00 63 1009.6
20230203061547 28 289 5.0 11.0 0.00 0.00 0.00 64 1009.6
20230203060043 28 290 7.0 12.0 0.00 0.00 0.00 64 1009.7
20230203054551 29 282 5.0 12.0 0.00 0.00 0.00 64 1010.1
20230203053037 29 302 6.0 14.0 0.00 0.00 0.00 62 1010.3
20230203051533 29 267 5.0 13.0 0.00 0.00 0.00 61 1010.4
20230203050030 29 279 7.0 13.0 0.00 0.00 0.00 61 1010.8
20230203044531 29 292 5.0 18.0 0.00 0.00 0.00 63 1011.1
20230203043028 29 281 5.0 12.0 0.00 0.00 0.00 64 1011.0
20230203041527 29 304 5.0 14.0 0.00 0.00 0.00 64 1011.1
20230203040026 29 293 5.0 10.0 0.00 0.00 0.00 64 1011.3
20230203034525 29 300 5.0 10.0 0.00 0.00 0.00 65 1011.9
20230203033041 29 238 4.0 10.0 0.00 0.00 0.00 66 1012.1
20230203031522 29 213 6.0 14.0 0.00 0.00 0.00 65 1012.3
20230203030023 29 250 6.0 12.0 0.00 0.00 0.00 64 1012.4
20230203024522 29 238 5.0 11.0 0.00 0.00 0.00 63 1012.4
20230203023019 29 224 5.0 13.0 0.00 0.00 0.00 62 1012.3
20230203021528 29 236 2.0 9.0 0.00 0.00 0.00 62 1012.6
20230203020015 29 217 4.0 8.0 0.00 0.00 0.00 61 1013.0
20230203014518 29 237 2.0 7.0 0.00 0.00 0.00 60 1013.2
20230203013014 29 277 3.0 7.0 0.00 0.00 0.00 60 1013.5
20230203011512 29 274 3.0 7.0 0.00 0.00 0.00 59 1013.5
20230203010032 29 269 3.0 6.0 0.00 0.00 0.00 59 1013.8
20230203004510 29 249 3.0 10.0 0.00 0.00 0.00 58 1013.6
20230203003009 29 256 3.0 7.0 0.00 0.00 0.00 57 1013.7
20230203001506 29 250 3.0 6.0 0.00 0.00 0.00 56 1014.2
20230203000009 29 237 3.0 6.0 0.00 0.00 0.00 54 1014.0
20230202234505 29 251 3.0 6.0 0.00 0.00 0.00 54 1014.7
20230202233003 29 283 3.0 8.0 0.00 0.00 0.00 53 1015.1
20230202231502 29 269 3.0 7.0 0.00 0.00 0.00 53 1015.2
20230202230002 29 232 3.0 8.0 0.00 0.00 0.00 52 1015.3
20230202224606 29 259 3.0 8.0 0.00 0.00 0.00 52 1015.7
20230202223120 30 249 3.0 7.0 0.00 0.00 0.00 52 1015.7
20230202221559 30 244 3.0 6.0 0.00 0.00 0.00 51 1016.3
20230202220056 30 244 3.0 7.0 0.00 0.00 0.00 50 1016.2
20230202220026 30 233 3.0 7.0 0.00 0.00 0.00 50 1016.2
20230202214555 31 278 1.0 4.0 0.00 0.00 0.00 50 1016.1
20230202213100 31 281 1.0 9.0 0.00 0.00 0.00 49 1016.5
20230202211556 31 257 2.0 8.0 0.00 0.00 0.00 47 1016.9
20230202210051 31 274 1.0 6.0 0.00 0.00 0.00 46 1017.1
20230202204551 32 292 2.0 5.0 0.00 0.00 0.00 44 1016.9
20230202203056 32 291 1.0 8.0 0.00 0.00 0.00 43 1017.2
20230202201553 32 262 3.0 10.0 0.00 0.00 0.00 43 1017.2
20230202200044 32 270 2.0 8.0 0.00 0.00 0.00 42 1017.7
20230202194603 32 266 3.0 9.0 0.00 0.00 0.00 43 1017.8
20230202193042 32 272 3.0 8.0 0.00 0.00 0.00 43 1018.1
20230202191540 32 267 3.0 7.0 0.00 0.00 0.00 43 1018.2
20230202190037 31 240 3.0 9.0 0.00 0.00 0.00 40 1018.7
20230202184535 31 252 4.0 10.0 0.00 0.00 0.00 40 1018.9
20230202183038 31 277 3.0 11.0 0.00 0.00 0.00 38 1019.0
20230202181537 31 305 4.0 9.0 0.00 0.00 0.00 39 1019.2
20230202180030 31 295 3.0 8.0 0.00 0.00 0.00 40 1019.9
20230202174527 30 291 2.0 9.0 0.00 0.00 0.00 41 1020.4
20230202173023 30 203 3.0 6.0 0.00 0.00 0.00 41 1021.0
20230202171520 29 266 2.0 7.0 0.00 0.00 0.00 44 1021.3
20230202170017 29 285 2.0 7.0 0.00 0.00 0.00 49 1022.0
20230202164514 28 330 2.0 5.0 0.00 0.00 0.00 52 1022.5
20230202163011 27 283 1.0 5.0 0.00 0.00 0.00 55 1022.9
20230202161507 27 313 2.0 5.0 0.00 0.00 0.00 56 1023.5
20230202160004 26 212 2.0 7.0 0.00 0.00 0.00 58 1023.5
20230202154600 26 288 2.0 5.0 0.00 0.00 0.00 60 1023.9
20230202153058 25 275 1.0 4.0 0.00 0.00 0.00 62 1024.1
20230202151555 24 256 1.0 4.0 0.00 0.00 0.00 62 1024.1
20230202150051 23 241 2.0 5.0 0.00 0.00 0.00 63 1024.6
20230202144554 23 219 0.0 3.0 0.00 0.00 0.00 64 1024.8
20230202143049 23 276 0.0 4.0 0.00 0.00 0.00 65 1024.9
20230202141549 23 281 0.0 3.0 0.00 0.00 0.00 63 1024.8
20230202140050 23 277 1.0 4.0 0.00 0.00 0.00 64 1024.9
20230202134605 23 229 0.0 2.0 0.00 0.00 0.00 66 1024.9
20230202133043 22 248 0.0 2.0 0.00 0.00 0.00 65 1025.0
20230202131542 21 253 0.0 2.0 0.00 0.00 0.00 66 1024.8
20230202130041 19 207 0.0 1.0 0.00 0.00 0.00 71 1024.9
20230202124539 19 294 0.0 1.0 0.00 0.00 0.00 68 1024.9
20230202123039 19 294 0.0 1.0 0.00 0.00 0.00 67 1024.7
20230202121536 19 321 0.0 0.0 0.00 0.00 0.00 67 1024.7
20230202120035 19 321 0.0 0.0 0.00 0.00 0.00 67 1024.9
20230202114540 19 322 0.0 0.0 0.00 0.00 0.00 68 1025.2
20230202113038 19 321 0.0 0.0 0.00 0.00 0.00 67 1025.4
20230202111537 19 321 0.0 0.0 0.00 0.00 0.00 67 1025.6
20230202110031 19 321 0.0 1.0 0.00 0.00 0.00 67 1025.7
20230202104531 19 290 0.0 1.0 0.00 0.00 0.00 68 1025.6
20230202103032 19 324 0.0 0.0 0.00 0.00 0.00 68 1025.5
20230202101531 18 323 0.0 0.0 0.00 0.00 0.00 69 1025.5
20230202100033 19 324 0.0 0.0 0.00 0.00 0.00 69 1025.4
20230202094525 19 324 0.0 0.0 0.00 0.00 0.00 67 1025.6
20230202093024 20 323 0.0 0.0 0.00 0.00 0.00 67 1025.7
20230202091526 20 323 0.0 0.0 0.00 0.00 0.00 67 1025.7
20230202090027 20 323 0.0 0.0 0.00 0.00 0.00 67 1025.6
20230202084536 20 326 0.0 1.0 0.00 0.00 0.00 67 1025.9
20230202083035 20 326 0.0 0.0 0.00 0.00 0.00 67 1025.5
20230202081521 20 326 0.0 0.0 0.00 0.00 0.00 66 1025.7
20230202080023 20 326 0.0 2.0 0.00 0.00 0.00 66 1026.1